DW6791 Weather Reports


time (UTC)temp
C
wind
direction
speed
KPH
gust
KPH
rain 1hr
cm
rain 24hr
cm
rain mn
cm
humidity
%
barometer
mb
20260505101003 19 103 0.0 9.7 0.00 0.00 0.00 88 1007.6
20260505100503 19 87 0.0 14.5 0.00 0.00 0.00 88 1007.7
20260505100003 19 105 0.0 14.5 0.00 0.00 0.00 88 1007.8
20260505095503 19 139 0.0 6.4 0.00 0.00 0.00 88 1007.9
20260505095003 19 118 0.0 6.4 0.00 0.00 0.00 88 1008.0
20260505094503 19 106 0.0 9.7 0.00 0.00 0.00 88 1008.0
20260505094003 18 107 0.0 9.7 0.00 0.00 0.00 88 1008.2
20260505093503 18 119 0.0 6.4 0.00 0.00 0.00 88 1008.1
20260505093003 18 121 0.0 6.4 0.00 0.00 0.00 88 1008.2
20260505092503 18 111 0.0 1.6 0.00 0.00 0.00 88 1008.3
20260505092003 18 87 0.0 1.6 0.00 0.00 0.00 88 1008.3
20260505091503 18 87 0.0 1.6 0.00 0.00 0.00 88 1008.3
20260505091003 18 109 0.0 1.6 0.00 0.00 0.00 88 1008.5
20260505090503 18 109 0.0 1.6 0.00 0.00 0.00 87 1008.5
20260505090003 18 261 0.0 3.2 0.00 0.00 0.00 87 1008.6
20260505085503 18 159 0.0 6.4 0.00 0.00 0.00 87 1008.5
20260505085003 18 134 0.0 6.4 0.00 0.00 0.00 87 1008.6
20260505084503 18 128 0.0 3.2 0.00 0.00 0.00 87 1008.6
20260505084003 18 0 0.0 0.0 0.00 0.00 0.00 87 1008.5
20260505083503 18 116 0.0 1.6 0.00 0.00 0.00 87 1008.6
20260505083003 18 116 0.0 1.6 0.00 0.00 0.00 87 1008.6
20260505082503 18 116 0.0 1.6 0.00 0.00 0.00 87 1008.7
20260505082003 18 111 0.0 4.8 0.00 0.00 0.00 87 1008.8
20260505081503 18 111 0.0 4.8 0.00 0.00 0.00 87 1008.6
20260505081003 18 106 0.0 1.6 0.00 0.00 0.00 87 1008.6
20260505080503 18 108 0.0 1.6 0.00 0.00 0.00 86 1008.8
20260505080003 18 131 0.0 3.2 0.00 0.00 0.00 86 1008.9
20260505075503 18 198 0.0 3.2 0.00 0.00 0.00 86 1008.8
20260505075003 18 222 0.0 3.2 0.00 0.00 0.00 86 1008.7
20260505074503 18 208 0.0 3.2 0.00 0.00 0.00 86 1009.0
20260505074003 18 211 0.0 3.2 0.00 0.00 0.00 85 1009.0
20260505073503 18 233 0.0 3.2 0.00 0.00 0.00 85 1009.0
20260505073003 18 270 0.0 4.8 0.00 0.00 0.00 85 1009.0
20260505072503 18 271 0.0 4.8 0.00 0.00 0.00 85 1008.9
20260505072003 18 262 0.0 4.8 0.00 0.00 0.00 84 1009.0
20260505071503 19 271 0.0 4.8 0.00 0.00 0.00 84 1009.2
20260505071003 19 272 0.0 4.8 0.00 0.00 0.00 84 1009.0
20260505070503 19 228 0.0 3.2 0.00 0.00 0.00 84 1009.0
20260505070004 19 221 1.6 4.8 0.00 0.00 0.00 84 1009.1
20260505065503 19 218 1.6 6.4 0.00 0.00 0.00 83 1009.2
20260505065003 19 222 0.0 9.7 0.00 0.00 0.00 83 1009.3
20260505064503 20 241 1.6 12.9 0.00 0.00 0.00 83 1009.4
20260505064003 20 261 1.6 12.9 0.00 0.00 0.00 83 1009.4
20260505063503 20 254 1.6 11.3 0.00 0.00 0.00 82 1009.4
20260505063003 20 245 3.2 16.1 0.00 0.00 0.00 82 1009.5
20260505062503 20 253 3.2 16.1 0.00 0.00 0.00 82 1009.6
20260505062003 20 248 3.2 12.9 0.00 0.00 0.00 82 1009.6
20260505061503 20 245 3.2 14.5 0.00 0.00 0.00 82 1009.5
20260505061003 20 248 3.2 14.5 0.00 0.00 0.00 82 1009.5
20260505060503 20 251 3.2 11.3 0.00 0.00 0.00 81 1009.6
20260505060003 20 255 3.2 11.3 0.00 0.00 0.00 81 1009.6
20260505055503 20 228 1.6 9.7 0.00 0.00 0.00 81 1009.4
20260505055003 20 163 1.6 8.0 0.00 0.00 0.00 81 1009.3
20260505054524 20 179 3.2 9.7 0.00 0.00 0.00 81 1009.5
20260505054003 20 230 3.2 11.3 0.00 0.00 0.00 80 1009.6
20260505053524 20 235 3.2 11.3 0.00 0.00 0.00 80 1009.7
20260505053003 20 173 3.2 11.3 0.00 0.00 0.00 80 1009.8
20260505052503 20 234 1.6 11.3 0.00 0.00 0.00 80 1009.7
20260505052003 20 262 1.6 9.7 0.00 0.00 0.00 80 1009.7
20260505051503 20 163 3.2 12.9 0.00 0.00 0.00 80 1009.6
20260505051003 20 117 3.2 12.9 0.00 0.00 0.00 79 1009.7
20260505050503 20 113 3.2 16.1 0.00 0.00 0.00 79 1009.7
20260505041503 21 169 3.2 12.9 0.00 0.00 0.00 76 1009.9
20260505041003 21 239 3.2 12.9 0.00 0.00 0.00 76 1010.0
20260505040503 21 238 3.2 16.1 0.00 0.00 0.00 76 1010.0
20260505040004 21 238 4.8 17.7 0.00 0.00 0.00 76 1010.1
20260505035524 21 179 4.8 17.7 0.00 0.00 0.00 75 1010.0
20260505035003 21 161 4.8 14.5 0.00 0.00 0.00 75 1010.0
20260505034503 21 189 4.8 14.5 0.00 0.00 0.00 75 1009.9
20260505034003 21 113 3.2 11.3 0.00 0.00 0.00 75 1010.0
20260505033503 21 104 3.2 11.3 0.00 0.00 0.00 75 1009.9
20260505033003 21 121 3.2 12.9 0.00 0.00 0.00 75 1009.9
20260505032503 21 130 3.2 12.9 0.00 0.00 0.00 74 1009.9
20260505032003 21 285 3.2 12.9 0.00 0.00 0.00 74 1010.0
20260505031503 21 306 3.2 16.1 0.00 0.00 0.00 74 1009.9
20260505031003 21 98 4.8 17.7 0.00 0.00 0.00 74 1009.8
20260505030524 21 100 3.2 17.7 0.00 0.00 0.00 74 1009.8
20260505030003 21 96 1.6 11.3 0.00 0.00 0.00 74 1009.9
20260505025503 21 132 3.2 14.5 0.00 0.00 0.00 73 1010.1
20260505025003 21 159 3.2 14.5 0.00 0.00 0.00 73 1010.2
20260505024503 21 170 3.2 11.3 0.00 0.00 0.00 72 1010.2
20260505024003 21 127 3.2 17.7 0.00 0.00 0.00 72 1010.1
20260505023503 21 148 4.8 17.7 0.00 0.00 0.00 72 1010.1
20260505023003 21 131 3.2 11.3 0.00 0.00 0.00 72 1010.1
20260505022503 21 125 3.2 12.9 0.00 0.00 0.00 72 1010.0
20260505022003 22 182 3.2 16.1 0.00 0.00 0.00 71 1010.0
20260505021503 22 214 3.2 16.1 0.00 0.00 0.00 71 1009.9
20260505021024 22 133 3.2 14.5 0.00 0.00 0.00 71 1009.8
20260505020524 22 97 3.2 14.5 0.00 0.00 0.00 71 1009.6
20260505020003 22 154 3.2 14.5 0.00 0.00 0.00 70 1009.6
20260505015503 22 272 3.2 14.5 0.00 0.00 0.00 70 1009.6
20260505015003 22 293 3.2 11.3 0.00 0.00 0.00 70 1009.6
20260505014503 22 222 1.6 8.0 0.00 0.00 0.00 70 1009.4
20260505014024 22 231 1.6 6.4 0.00 0.00 0.00 70 1009.3
20260505013524 22 248 0.0 4.8 0.00 0.00 0.00 69 1009.3
20260505013003 22 266 1.6 8.0 0.00 0.00 0.00 68 1009.3
20260505012503 22 326 1.6 8.0 0.00 0.00 0.00 68 1009.3
20260505012003 22 312 1.6 6.4 0.00 0.00 0.00 68 1009.2
20260505011524 22 275 1.6 8.0 0.00 0.00 0.00 68 1009.1
20260505011003 22 137 1.6 9.7 0.00 0.00 0.00 68 1009.1
20260505010503 22 134 1.6 11.3 0.00 0.00 0.00 67 1009.1
20260505010003 23 158 1.6 11.3 0.00 0.00 0.00 67 1009.4
20260505005503 23 217 1.6 4.8 0.00 0.00 0.00 66 1009.5
20260505005003 23 210 0.0 4.8 0.00 0.00 0.00 65 1009.4
20260505004503 23 138 1.6 4.8 0.00 0.00 0.00 65 1009.4
20260505004003 23 218 1.6 12.9 0.00 0.00 0.00 64 1009.4
20260505003503 23 215 3.2 12.9 0.00 0.00 0.00 63 1009.4
20260505003003 23 192 1.6 12.9 0.00 0.00 0.00 63 1009.4
20260505002503 24 232 3.2 14.5 0.00 0.00 0.00 62 1009.4
20260505002003 24 248 3.2 14.5 0.00 0.00 0.00 62 1009.3
20260505001503 24 235 1.6 6.4 0.00 0.00 0.00 62 1009.4
20260505001003 24 158 1.6 14.5 0.00 0.00 0.00 61 1009.5
20260505000503 24 182 3.2 14.5 0.00 0.00 0.00 60 1009.6
20260505000003 25 151 3.2 14.5 0.00 0.00 0.00 61 1009.6
20260504235503 25 127 4.8 17.7 0.00 0.00 0.00 60 1009.5
20260504235003 25 141 4.8 17.7 0.00 0.00 0.00 59 1009.6
20260504234503 25 187 3.2 12.9 0.00 0.00 0.00 58 1009.7
20260504234003 25 101 4.8 17.7 0.00 0.00 0.00 57 1009.7
20260504233503 25 117 6.4 17.7 0.00 0.00 0.00 57 1009.7
20260504233003 25 132 4.8 16.1 0.00 0.00 0.00 58 1009.6
20260504232503 26 127 3.2 12.9 0.00 0.00 0.00 57 1009.7
20260504232003 26 101 3.2 12.9 0.00 0.00 0.00 56 1009.8
20260504231503 26 136 3.2 12.9 0.00 0.00 0.00 58 1009.9
20260504231003 26 164 3.2 14.5 0.00 0.00 0.00 57 1010.0
20260504230524 26 167 3.2 14.5 0.00 0.00 0.00 55 1010.0
20260504230003 26 239 4.8 14.5 0.00 0.00 0.00 54 1009.9
20260504225524 26 253 4.8 14.5 0.00 0.00 0.00 54 1010.0
20260504225003 26 254 4.8 19.3 0.00 0.00 0.00 54 1010.1
20260504224503 26 214 6.4 20.9 0.00 0.00 0.00 53 1010.2
20260504224003 26 165 6.4 20.9 0.00 0.00 0.00 53 1010.2
20260504223503 26 125 6.4 19.3 0.00 0.00 0.00 52 1010.1
20260504223003 26 149 6.4 19.3 0.00 0.00 0.00 52 1010.2
20260504222503 26 178 4.8 12.9 0.00 0.00 0.00 51 1010.1
20260504222003 26 197 6.4 22.5 0.00 0.00 0.00 51 1010.1
20260504221503 26 135 8.0 22.5 0.00 0.00 0.00 51 1010.7
20260504221003 26 209 8.0 19.3 0.00 0.00 0.00 50 1010.5
20260504220503 26 251 8.0 17.7 0.00 0.00 0.00 50 1010.8
20260504220003 26 249 6.4 16.1 0.00 0.00 0.00 50 1010.7
20260504215503 26 249 6.4 19.3 0.00 0.00 0.00 49 1010.8
20260504215003 26 264 4.8 19.3 0.00 0.00 0.00 50 1010.9
20260504214503 26 305 4.8 17.7 0.00 0.00 0.00 47 1010.8
20260504214004 26 268 6.4 19.3 0.00 0.00 0.00 49 1010.8
20260504213503 26 257 6.4 19.3 0.00 0.00 0.00 49 1011.0
20260504213003 26 262 6.4 17.7 0.00 0.00 0.00 48 1011.1
20260504212503 26 244 4.8 14.5 0.00 0.00 0.00 51 1011.2
20260504212003 26 169 4.8 22.5 0.00 0.00 0.00 47 1011.2
20260504211524 26 149 4.8 22.5 0.00 0.00 0.00 47 1011.3
20260504211003 26 129 4.8 16.1 0.00 0.00 0.00 49 1011.4
20260504210503 26 139 6.4 16.1 0.00 0.00 0.00 46 1011.3
20260504210003 26 159 6.4 16.1 0.00 0.00 0.00 48 1011.4
20260504205524 26 151 4.8 16.1 0.00 0.00 0.00 44 1011.5
20260504205003 27 173 3.2 11.3 0.00 0.00 0.00 47 1011.5
20260504204503 26 144 4.8 17.7 0.00 0.00 0.00 45 1011.6
20260504204003 26 130 6.4 17.7 0.00 0.00 0.00 45 1011.8
20260504203504 26 166 6.4 17.7 0.00 0.00 0.00 46 1011.8
20260504203003 26 251 8.0 17.7 0.00 0.00 0.00 46 1011.9
20260504202503 26 259 9.7 19.3 0.00 0.00 0.00 42 1012.2
20260504202004 26 210 9.7 20.9 0.00 0.00 0.00 44 1012.2
20260504201503 26 138 8.0 20.9 0.00 0.00 0.00 45 1012.3
20260504201003 26 216 4.8 17.7 0.00 0.00 0.00 44 1012.4
20260504200524 26 247 6.4 17.7 0.00 0.00 0.00 44 1012.5
20260504200003 26 221 4.8 16.1 0.00 0.00 0.00 45 1012.6
20260504195503 26 236 6.4 17.7 0.00 0.00 0.00 45 1012.7
20260504195003 26 214 6.4 17.7 0.00 0.00 0.00 43 1012.7
20260504194524 26 120 4.8 12.9 0.00 0.00 0.00 48 1012.7
20260504194003 26 214 4.8 12.9 0.00 0.00 0.00 50 1012.8
20260504193503 26 203 4.8 12.9 0.00 0.00 0.00 47 1012.8
20260504193003 26 145 4.8 14.5 0.00 0.00 0.00 46 1013.1
20260504192503 26 216 6.4 22.5 0.00 0.00 0.00 45 1013.1
20260504192003 25 235 6.4 22.5 0.00 0.00 0.00 48 1013.1
20260504191503 25 162 6.4 19.3 0.00 0.00 0.00 48 1013.2
20260504191003 25 273 4.8 12.9 0.00 0.00 0.00 45 1013.2
20260504190504 25 263 6.4 19.3 0.00 0.00 0.00 46 1013.4
20260504190003 25 251 6.4 22.5 0.00 0.00 0.00 45 1013.6
20260504185503 25 108 6.4 22.5 0.00 0.00 0.00 44 1013.7
20260504185003 26 234 4.8 20.9 0.00 0.00 0.00 47 1013.7
20260504184503 25 195 6.4 16.1 0.00 0.00 0.00 48 1013.7
20260504184003 25 238 8.0 20.9 0.00 0.00 0.00 45 1013.8
20260504183504 25 253 9.7 20.9 0.00 0.00 0.00 49 1013.8
20260504183003 25 223 6.4 19.3 0.00 0.00 0.00 48 1014.0
20260504182503 25 163 8.0 19.3 0.00 0.00 0.00 50 1014.0
20260504182003 25 169 9.7 20.9 0.00 0.00 0.00 45 1014.2
20260504181503 25 135 8.0 20.9 0.00 0.00 0.00 51 1014.1
20260504181003 25 132 6.4 20.9 0.00 0.00 0.00 47 1014.3
20260504180524 25 252 6.4 16.1 0.00 0.00 0.00 49 1014.5
20260504180003 24 251 6.4 20.9 0.00 0.00 0.00 50 1014.8
20260504175503 25 252 6.4 20.9 0.00 0.00 0.00 50 1014.8
20260504175003 24 198 6.4 19.3 0.00 0.00 0.00 51 1014.9
20260504174503 25 116 8.0 19.3 0.00 0.00 0.00 53 1014.9
20260504174003 24 110 8.0 19.3 0.00 0.00 0.00 54 1014.9
20260504173524 24 116 9.7 30.6 0.00 0.00 0.00 49 1015.0
20260504173003 24 127 9.7 30.6 0.00 0.00 0.00 50 1014.9
20260504172503 23 143 9.7 24.1 0.00 0.00 0.00 51 1014.9
20260504172003 24 131 9.7 24.1 0.00 0.00 0.00 51 1014.9
20260504171503 23 137 8.0 25.7 0.00 0.00 0.00 51 1015.1
20260504171003 23 218 8.0 25.7 0.00 0.00 0.00 50 1015.2
20260504170525 23 225 6.4 25.7 0.00 0.00 0.00 53 1015.3
20260504151003 21 138 4.8 14.5 0.00 0.00 0.00 67 1015.8
20260504150524 21 160 6.4 14.5 0.00 0.00 0.00 66 1016.0
20260504141003 18 280 1.6 11.3 0.00 0.00 0.00 72 1016.3
20260504140503 18 294 1.6 11.3 0.00 0.00 0.00 72 1016.1
20260504130503 16 0 0.0 0.0 0.00 0.00 0.00 79 1016.0
20260504110503 11 0 0.0 0.0 0.00 0.00 0.00 90 1015.4